Location: Jaite
(41.2884°N, 81.5737°W)
Time: 13:12:15
(UTC+00:00)

Cosmos 2237 Rocket - Pass Details

Date: 15 November 2025
Orbit: 835 x 847 km, 71.0° (Epoch: 06 December)

Event Time Altitude Azimuth Distance (km) Brightness Sun altitude
Exits shadow 10:25:04 26° 326° (NW) 1,588 3.3 -20.6°
Drops below altitude 10° 10:28:44 10° 4° (N) 2,463 4.6 -19.9°
Sets 10:31:32 0° 16° (NNE) 3,400 5.4 -19.4°
